Regional Weather Roundup
Issued by NWS

Home | Current Version | Previous Version | Text Only | Print | Product List | Glossary Off
Versions: 1 2 3 4 5 6 7 8 9 10 11 12 13 14 15 16 17 18 19 20 21 22 23 24 25 26 27 28 29 30 31 32 33 34 35 36 37 38 39 40 41 42 43 44 45 46 47 48 49 50

000
ASUS43 KMKX 280600
RWRWI

WISCONSIN REGIONAL WEATHER ROUNDUP
NATIONAL WEATHER SERVICE MILWAUKEE/SULLIVAN WI
1200 AM CST SUN DEC 28 2014

NOTE: "FAIR" INDICATES FEW OR NO CLOUDS BELOW 12,000 FEET WITH NO
SIGNIFICANT WEATHER AND/OR OBSTRUCTIONS TO VISIBILITY.

WIZ001-002-006>008-014>016-023>028-280700-
NORTHWEST WISCONSIN

CITY           SKY/WX    TMP DP  RH WIND       PRES   REMARKS
SUPERIOR ARPT  CLOUDY    21  13  71 W5        30.04S WCI  15
ASHLAND        CLEAR     17  11  77 SW9       30.01F WCI   6
6HR MIN TEMP:  13; 6HR MAX TEMP:  20;

HAYWARD        CLEAR     13   8  81 SW8       30.02F WCI   2
6HR MIN TEMP:  11; 6HR MAX TEMP:  18;

SIREN          CLEAR     13   9  83 SW8       30.06S WCI   2
CUMBERLAND     CLEAR      5   1  85 SW7       30.05F WCI  -7
RICE LAKE      CLEAR     12   8  83 SW3       30.07F
6HR MIN TEMP:  12; 6HR MAX TEMP:  17;

CHETEK         CLEAR     12   8  85 CALM      30.07F
LADYSMITH      CLEAR     11   9  89 S3        30.05F
6HR MIN TEMP:   8; 6HR MAX TEMP:  18;

EAU CLAIRE     NOT AVBL
MENOMONIE      CLEAR     11   6  79 SW5       30.10F WCI   3
6HR MIN TEMP:  11; 6HR MAX TEMP:  19;

NEW RICHMOND   CLOUDY     9   6  89 SW5       30.10F WCI   0
OSCEOLA        CLOUDY    12   8  85 SW3       30.12F
$$

WIZ003>005-009-010-017-018-280700-
NORTH CENTRAL WISCONSIN

CITY           SKY/WX    TMP DP  RH WIND       PRES   REMARKS
MANITOWISH WTR CLOUDY    13  11  90 SW6       29.97S WCI   4
ARBOR VITAE    CLOUDY    17  13  86 W3        29.98S
WOODRUFF       CLOUDY    17  13  86 W3        29.98S
RHINELANDER    PTCLDY     6   5  95 SW5       29.99S WCI  -3
6HR MIN TEMP:   6; 6HR MAX TEMP:  24;

EAGLE RIVER    MOCLDY    10   8  93 SW6       29.97S WCI   0
LAND O LAKES   MOCLDY    15  12  89 W6        29.96S WCI   6
PHILLIPS       CLOUDY    14  11  87 SW6       29.99F WCI   5
6HR MIN TEMP:  10; 6HR MAX TEMP:  18;

TOMAHAWK       CLEAR     13  10  89 CALM      30.01F
MEDFORD        PTCLDY    12  10  91 W7        30.03S WCI   2
MERRILL        PTCLDY    11   9  93 W5        30.03F FOG     WCI   3
$$

WIZ029-030-035-036-043>047-280700-
CENTRAL WISCONSIN

CITY           SKY/WX    TMP DP  RH WIND       PRES   REMARKS
WAUSAU         CLOUDY    16  13  88 W5        30.03F WCI   9
6HR MIN TEMP:  15; 6HR MAX TEMP:  26;

MOSINEE        MOCLDY    14  14 100 W7        30.06S WCI   4
MARSHFIELD     CLEAR     15  12  88 W9        30.05F WCI   3
6HR MIN TEMP:  15; 6HR MAX TEMP:  24;

STEVENS POINT  PTCLDY    18  15  90 SW6       30.06F WCI  10
WAUPACA        PTCLDY    24  19  82 W8        30.08F WCI  15
6HR MIN TEMP:  24; 6HR MAX TEMP:  32;

WAUTOMA        NOT AVBL
WISC RAPIDS    CLEAR     19  15  84 W7        30.09F WCI  10
6HR MIN TEMP:  19; 6HR MAX TEMP:  27;

CAMP DOUGLAS   NOT AVBL
$$

WIZ011>013-019>022-031-037>040-048>050-280700-
NORTHEAST WISCONSIN

CITY           SKY/WX    TMP DP  RH WIND       PRES   REMARKS
ANTIGO         CLEAR     10  10  96 W8        30.01F WCI  -1
SHAWANO        CLEAR     23  18  80 W7        30.06F WCI  15
6HR MIN TEMP:  23; 6HR MAX TEMP:  34;

OCONTO         CLEAR     25  19  79 W8        30.05S WCI  16
STURGEON BAY   CLEAR     27  18  69 NW15G22   30.04S WCI  15
6HR MIN TEMP:  27; 6HR MAX TEMP:  34;

GREEN BAY      CLEAR     25  18  74 W16       30.07S WCI  12
6HR MIN TEMP:  25; 6HR MAX TEMP:  34;

MANITOWOC      NOT AVBL
APPLETON       CLEAR     23  18  80 W14       30.07F WCI  11
CLINTONVILLE   CLEAR     23  18  80 W6        30.07F WCI  16
OSHKOSH        PTCLDY    24  17  74 W9        30.08F WCI  14
6HR MIN TEMP:  24; 6HR MAX TEMP:  32;

$$

WIZ032>034-041-042-053>061-280700-
SOUTHWEST WISCONSIN

CITY           SKY/WX    TMP DP  RH WIND       PRES   REMARKS
LA CROSSE      CLEAR     15   8  73 S6        30.16S WCI   6
6HR MIN TEMP:  14; 6HR MAX TEMP:  25;

SPARTA         CLEAR     18  13  82 SW6       30.13F WCI   9
VIROQUA        CLEAR     16  12  83 W8        30.11S WCI   5
BOSCOBEL       CLEAR     19  12  74 SW6       30.17S WCI  11
6HR MIN TEMP:  19; 6HR MAX TEMP:  29; 6HR PCP: TRACE;

PRAIRIE DU CHI CLEAR     19  11  72 W5        30.18F WCI  12
PLATTEVILLE    CLEAR     20  17  86 W10       30.15S WCI   9
$$

WIZ056-057-062-063-064-067-068-280700-
SOUTH CENTRAL WISCONSIN

CITY           SKY/WX    TMP DP  RH WIND       PRES   REMARKS
REEDSBURG      CLEAR     21  17  86 W8        30.12S WCI  11
BARABOO/DELLS  CLEAR     21  18  86 W6        30.10F WCI  14
LONE ROCK      NOT AVBL
MINERAL POINT  PTCLDY    23  19  86 W8        30.12S WCI  14
MADISON        PTCLDY    24  18  77 VRB3      30.11F
6HR MIN TEMP:  24; 6HR MAX TEMP:  31;

MIDDLETON      CLEAR     25  19  80 W9        30.12S WCI  15
WATERTOWN      CLOUDY    28  21  76 W9        30.09F WCI  19
MONROE         CLOUDY    25  21  86 W8        30.11S WCI  16
JANESVILLE     CLOUDY    30  23  74 W9        30.11F WCI  22
$$

WIZ051-052-058>065-066-070>072-280700-
SOUTHEAST WISCONSIN

CITY           SKY/WX    TMP DP  RH WIND       PRES   REMARKS
MILWAUKEE      MOCLDY    30  20  66 NW8       30.07F WCI  22
6HR MIN TEMP:  30; 6HR MAX TEMP:  35;

WAUKESHA       CLOUDY    28  21  74 W9        30.09F WCI  20
MILWAUKEE/TIMM CLOUDY    30  21  69 W9        30.08F WCI  22
RACINE         CLOUDY    30  22  72 W10       30.08F WCI  21
6HR MIN TEMP:  30; 6HR MAX TEMP:  35;

BURLINGTON     CLOUDY    29  22  74 NW12      30.09F WCI  19
KENOSHA        CLOUDY    31  24  75 W9        30.07F WCI  23
6HR MIN TEMP:  31; 6HR MAX TEMP:  34;

FOND DU LAC    CLEAR     24  17  74 W9        30.09S WCI  14
6HR MIN TEMP:  24; 6HR MAX TEMP:  32;

SHEBOYGAN      CLOUDY    28  20  71 W16G22    30.06F WCI  16
6HR MIN TEMP:  28; 6HR MAX TEMP:  33;

WEST BEND      CLOUDY    28  19  69 W15       30.07F WCI  17
JUNEAU         MOCLDY    25  19  78 W9        30.10F WCI  16
$$

LSZ147-162-280700-
LAKE SUPERIOR

STATION/POSITION TIME  TEMP    WIND        PRES    WAVE
                       AIR SEA DIR/SP/G            HT/PER
                 (UTC) (F)     (DEG/KT/KT) (MB)    (FT/S)
DEVILS ISLAND    0500   24     280/ 19/ 23 1016.9R
PORT WING        0500   23     240/  6/ 10 1016.9R
SAXON HARBOR     0500   21     210/  7/ 11 1016.6S
$$

LMZ867-665-643>646-280700-
LAKE MICHIGAN

STATION/POSITION TIME  TEMP    WIND        PRES    WAVE
                       AIR SEA DIR/SP/G            HT/PER
                 (UTC) (F)     (DEG/KT/KT) (MB)    (FT/S)
CHAMBERS ISLAND  0500   29     230/  7/ 14 1016.9R
NORTHPORT PIER   0500   30     290/ 11/ 21 1016.3R
SISTER BAY       0513          310/ 22/ 25   N/A
KEWAUNEE LAKESHO 0500   31     280/  9/ 18 1016.3R
SHEBOYGAN LAKESH 0500   30 38  280/ 10/ 12 1018.9R
PORT WASHINGTON  0500   30     280/ 13/ 17 1019.3S
MILWAUKEE LAKESH 0500   31     280/  9/ 11   N/A
KENOSHA   LAKESH 0500   32     280/ 10/ 14 1018.6F
$$

TC  - TEMPERATURE IN CELSIUS
VSB - VISIBILITY IN STATUTE MILES
WCI - WIND CHILL INDEX
HX  - HEAT INDEX



USA.gov is the U.S. government's official web portal to all federal, state and local government web resources and services.